Time,TemperatureF,DewpointF,PressureIn,WindDirection,WindDirectionDegrees,WindSpeedMPH,WindSpeedGustMPH,Humidity,HourlyPrecipIn,Conditions,Clouds,dailyrainin,SoftwareType,DateUTC
2013-10-08 00:05:00,63.9,18.2,30.14,East,99,0.0,5.0,17,0.00,,,0.00,Wunderground v.1.15,2013-10-08 07:05:00,
2013-10-08 00:10:00,64.1,18.3,30.14,East,99,0.0,5.0,17,0.00,,,0.00,Wunderground v.1.15,2013-10-08 07:10:00,
2013-10-08 00:15:00,63.7,18.0,30.14,East,99,0.0,5.0,17,0.00,,,0.00,Wunderground v.1.15,2013-10-08 07:15:00,
2013-10-08 00:20:00,63.6,17.9,30.14,East,99,0.0,6.0,17,0.00,,,0.00,Wunderground v.1.15,2013-10-08 07:20:00,
2013-10-08 00:25:00,63.7,18.0,30.14,East,99,0.0,6.0,17,0.00,,,0.00,Wunderground v.1.15,2013-10-08 07:25:00,
2013-10-08 00:35:00,63.7,19.3,30.14,NNW,329,2.0,6.0,18,0.00,,,0.00,Wunderground v.1.15,2013-10-08 07:35:00,
2013-10-08 00:40:00,63.4,19.1,30.14,NNW,329,2.0,2.0,18,0.00,,,0.00,Wunderground v.1.15,2013-10-08 07:40:00,
2013-10-08 00:45:00,62.8,18.6,30.14,NNW,329,0.0,6.0,18,0.00,,,0.00,Wunderground v.1.15,2013-10-08 07:45:00,
2013-10-08 00:55:00,61.5,18.8,30.14,NNW,329,0.0,7.0,19,0.00,,,0.00,Wunderground v.1.15,2013-10-08 07:55:00,
2013-10-08 01:00:00,61.5,18.8,30.14,NNW,329,0.0,7.0,19,0.00,,,0.00,Wunderground v.1.15,2013-10-08 08:00:00,
2013-10-08 01:05:00,61.2,18.6,30.14,NNW,329,0.0,7.0,19,0.00,,,0.00,Wunderground v.1.15,2013-10-08 08:05:00,
2013-10-08 01:15:00,60.7,18.1,30.14,NW,312,0.0,7.0,19,0.00,,,0.00,Wunderground v.1.15,2013-10-08 08:15:00,
2013-10-08 01:20:00,61.0,18.4,30.13,NW,311,0.0,1.0,19,0.00,,,0.00,Wunderground v.1.15,2013-10-08 08:20:00,
2013-10-08 01:25:00,61.0,18.4,30.13,NW,311,0.0,1.0,19,0.00,,,0.00,Wunderground v.1.15,2013-10-08 08:25:00,
2013-10-08 01:35:00,60.7,18.1,30.14,West,274,1.0,3.0,19,0.00,,,0.00,Wunderground v.1.15,2013-10-08 08:35:00,
2013-10-08 01:40:00,60.4,17.9,30.14,West,274,0.0,1.0,19,0.00,,,0.00,Wunderground v.1.15,2013-10-08 08:40:00,
2013-10-08 01:45:00,60.4,19.1,30.13,West,274,0.0,1.0,20,0.00,,,0.00,Wunderground v.1.15,2013-10-08 08:45:00,
2013-10-08 01:55:00,60.4,19.1,30.13,West,274,0.0,5.0,20,0.00,,,0.00,Wunderground v.1.15,2013-10-08 08:55:00,
2013-10-08 02:00:00,61.0,19.6,30.13,West,277,2.0,5.0,20,0.00,,,0.00,Wunderground v.1.15,2013-10-08 09:00:00,
2013-10-08 02:10:00,61.2,18.6,30.13,WNW,284,2.0,2.0,19,0.00,,,0.00,Wunderground v.1.15,2013-10-08 09:10:00,
2013-10-08 02:20:00,61.3,18.6,30.13,WNW,284,1.0,1.0,19,0.00,,,0.00,Wunderground v.1.15,2013-10-08 09:20:00,
2013-10-08 02:25:00,60.5,18.0,30.12,WNW,284,0.0,2.0,19,0.00,,,0.00,Wunderground v.1.15,2013-10-08 09:25:00,
2013-10-08 02:30:00,59.8,18.6,30.12,WNW,284,0.0,5.0,20,0.00,,,0.00,Wunderground v.1.15,2013-10-08 09:30:00,
2013-10-08 02:40:00,58.8,18.9,30.12,WNW,284,0.0,5.0,21,0.00,,,0.00,Wunderground v.1.15,2013-10-08 09:40:00,
2013-10-08 02:45:00,58.7,18.8,30.11,WNW,284,0.0,5.0,21,0.00,,,0.00,Wunderground v.1.15,2013-10-08 09:45:00,
2013-10-08 02:55:00,58.3,18.5,30.11,WNW,284,1.0,5.0,21,0.00,,,0.00,Wunderground v.1.15,2013-10-08 09:55:00,
2013-10-08 03:00:00,57.6,19.0,30.11,WNW,284,1.0,1.0,22,0.00,,,0.00,Wunderground v.1.15,2013-10-08 10:00:00,
2013-10-08 03:05:00,57.7,19.1,30.11,WNW,284,0.0,5.0,22,0.00,,,0.00,Wunderground v.1.15,2013-10-08 10:05:00,
2013-10-08 03:15:00,58.3,18.5,30.11,WNW,284,0.0,5.0,21,0.00,,,0.00,Wunderground v.1.15,2013-10-08 10:15:00,
2013-10-08 03:20:00,58.3,18.5,30.11,WNW,284,0.0,4.0,21,0.00,,,0.00,Wunderground v.1.15,2013-10-08 10:20:00,
2013-10-08 03:30:00,59.5,18.3,30.10,WNW,284,0.0,4.0,20,0.00,,,0.00,Wunderground v.1.15,2013-10-08 10:30:00,
2013-10-08 03:40:00,57.8,18.1,30.10,WNW,284,1.0,1.0,21,0.00,,,0.00,Wunderground v.1.15,2013-10-08 10:40:00,
2013-10-08 03:50:00,56.8,17.2,30.10,WNW,284,1.0,1.0,21,0.00,,,0.00,Wunderground v.1.15,2013-10-08 10:50:00,
2013-10-08 03:55:00,56.8,17.2,30.10,WNW,284,0.0,3.0,21,0.00,,,0.00,Wunderground v.1.15,2013-10-08 10:55:00,
2013-10-08 04:00:00,56.8,17.2,30.09,WNW,284,0.0,3.0,21,0.00,,,0.00,Wunderground v.1.15,2013-10-08 11:00:00,
2013-10-08 04:05:00,57.1,17.5,30.09,WNW,284,0.0,3.0,21,0.00,,,0.00,Wunderground v.1.15,2013-10-08 11:05:00,
2013-10-08 04:15:00,58.9,17.8,30.10,WNW,284,0.0,3.0,20,0.00,,,0.00,Wunderground v.1.15,2013-10-08 11:15:00,
2013-10-08 04:20:00,58.7,16.5,30.10,WNW,284,0.0,6.0,19,0.00,,,0.00,Wunderground v.1.15,2013-10-08 11:20:00,
2013-10-08 04:30:00,59.4,17.1,30.10,WNW,284,0.0,6.0,19,0.00,,,0.00,Wunderground v.1.15,2013-10-08 11:30:00,
2013-10-08 04:35:00,58.5,17.5,30.10,WNW,284,0.0,6.0,20,0.00,,,0.00,Wunderground v.1.15,2013-10-08 11:35:00,
2013-10-08 04:40:00,58.0,18.2,30.10,WNW,284,0.0,6.0,21,0.00,,,0.00,Wunderground v.1.15,2013-10-08 11:40:00,
2013-10-08 04:45:00,58.1,18.3,30.10,WNW,284,0.0,6.0,21,0.00,,,0.00,Wunderground v.1.15,2013-10-08 11:45:00,
2013-10-08 04:50:00,58.0,18.2,30.10,WNW,284,0.0,3.0,21,0.00,,,0.00,Wunderground v.1.15,2013-10-08 11:50:00,
2013-10-08 05:00:00,57.9,18.1,30.10,WNW,284,0.0,3.0,21,0.00,,,0.00,Wunderground v.1.15,2013-10-08 12:00:00,
2013-10-08 05:05:00,58.4,18.6,30.10,WNW,284,0.0,3.0,21,0.00,,,0.00,Wunderground v.1.15,2013-10-08 12:05:00,
2013-10-08 05:15:00,59.0,17.9,30.10,WNW,284,0.0,3.0,20,0.00,,,0.00,Wunderground v.1.15,2013-10-08 12:15:00,
2013-10-08 05:20:00,59.3,19.3,30.10,WNW,284,0.0,0.0,21,0.00,,,0.00,Wunderground v.1.15,2013-10-08 12:20:00,
2013-10-08 05:30:00,58.9,19.0,30.10,WNW,284,0.0,0.0,21,0.00,,,0.00,Wunderground v.1.15,2013-10-08 12:30:00,
2013-10-08 05:35:00,58.5,19.7,30.10,West,273,0.0,4.0,22,0.00,,,0.00,Wunderground v.1.15,2013-10-08 12:35:00,
2013-10-08 05:40:00,57.8,20.2,30.10,West,271,2.0,2.0,23,0.00,,,0.00,Wunderground v.1.15,2013-10-08 12:40:00,
2013-10-08 05:50:00,55.8,19.5,30.10,West,268,1.0,5.0,24,0.00,,,0.00,Wunderground v.1.15,2013-10-08 12:50:00,
2013-10-08 06:00:00,54.4,20.2,30.10,West,268,0.0,5.0,26,0.00,,,0.00,Wunderground v.1.15,2013-10-08 13:00:00,
2013-10-08 06:05:00,53.7,20.5,30.10,West,268,0.0,5.0,27,0.00,,,0.00,Wunderground v.1.15,2013-10-08 13:05:00,
2013-10-08 06:15:00,52.7,20.5,30.10,West,268,1.0,2.0,28,0.00,,,0.00,Wunderground v.1.15,2013-10-08 13:15:00,
2013-10-08 06:20:00,52.5,20.3,30.10,West,268,1.0,5.0,28,0.00,,,0.00,Wunderground v.1.15,2013-10-08 13:20:00,
2013-10-08 06:30:00,52.6,20.4,30.10,West,268,1.0,5.0,28,0.00,,,0.00,Wunderground v.1.15,2013-10-08 13:30:00,
2013-10-08 06:35:00,52.7,20.5,30.10,West,268,1.0,5.0,28,0.00,,,0.00,Wunderground v.1.15,2013-10-08 13:35:00,
2013-10-08 06:40:00,52.8,20.5,30.10,West,268,1.0,1.0,28,0.00,,,0.00,Wunderground v.1.15,2013-10-08 13:40:00,
2013-10-08 06:50:00,52.7,21.3,30.10,West,268,0.0,4.0,29,0.00,,,0.00,Wunderground v.1.15,2013-10-08 13:50:00,
2013-10-08 07:00:00,52.5,21.1,30.10,West,268,0.0,4.0,29,0.00,,,0.00,Wunderground v.1.15,2013-10-08 14:00:00,
2013-10-08 07:05:00,52.6,21.2,30.10,West,268,1.0,4.0,29,0.00,,,0.00,Wunderground v.1.15,2013-10-08 14:05:00,
2013-10-08 07:15:00,54.1,20.8,30.10,West,268,0.0,3.0,27,0.00,,,0.00,Wunderground v.1.15,2013-10-08 14:15:00,
2013-10-08 07:25:00,54.8,21.4,30.10,West,271,0.0,3.0,27,0.00,,,0.00,Wunderground v.1.15,2013-10-08 14:25:00,
2013-10-08 07:30:00,55.6,21.2,30.10,West,272,1.0,1.0,26,0.00,,,0.00,Wunderground v.1.15,2013-10-08 14:30:00,
2013-10-08 07:35:00,56.3,20.9,30.10,West,272,0.0,3.0,25,0.00,,,0.00,Wunderground v.1.15,2013-10-08 14:35:00,
2013-10-08 07:45:00,58.1,20.4,30.10,West,272,0.0,3.0,23,0.00,,,0.00,Wunderground v.1.15,2013-10-08 14:45:00,
2013-10-08 07:50:00,59.2,21.4,30.10,West,272,0.0,4.0,23,0.00,,,0.00,Wunderground v.1.15,2013-10-08 14:50:00,
2013-10-08 08:00:00,61.6,21.2,30.10,West,272,0.0,4.0,21,0.00,,,0.00,Wunderground v.1.15,2013-10-08 15:00:00,
2013-10-08 08:10:00,63.8,20.7,30.10,West,272,0.0,4.0,19,0.00,,,0.00,Wunderground v.1.15,2013-10-08 15:10:00,
2013-10-08 08:15:00,64.7,21.4,30.10,West,272,0.0,4.0,19,0.00,,,0.00,Wunderground v.1.15,2013-10-08 15:15:00,
2013-10-08 08:20:00,65.3,20.7,30.10,West,272,0.0,0.0,18,0.00,,,0.00,Wunderground v.1.15,2013-10-08 15:20:00,
2013-10-08 08:30:00,65.1,19.2,30.10,West,272,0.0,0.0,17,0.00,,,0.00,Wunderground v.1.15,2013-10-08 15:30:00,
2013-10-08 08:40:00,65.5,20.8,30.11,West,272,0.0,0.0,18,0.00,,,0.00,Wunderground v.1.15,2013-10-08 15:40:00,
2013-10-08 08:45:00,65.7,19.6,30.11,West,272,0.0,0.0,17,0.00,,,0.00,Wunderground v.1.15,2013-10-08 15:45:00,
2013-10-08 08:50:00,65.9,19.8,30.11,West,272,0.0,0.0,17,0.00,,,0.00,Wunderground v.1.15,2013-10-08 15:50:00,
2013-10-08 08:55:00,66.2,18.6,30.11,West,272,0.0,0.0,16,0.00,,,0.00,Wunderground v.1.15,2013-10-08 15:55:00,
2013-10-08 09:05:00,66.8,20.5,30.11,WSW,250,0.0,0.0,17,0.00,,,0.00,Wunderground v.1.15,2013-10-08 16:05:00,
2013-10-08 09:15:00,67.8,22.7,30.11,WSW,250,0.0,3.0,18,0.00,,,0.00,Wunderground v.1.15,2013-10-08 16:15:00,
2013-10-08 09:20:00,68.5,24.6,30.11,North,4,1.0,1.0,19,0.00,,,0.00,Wunderground v.1.15,2013-10-08 16:20:00,
2013-10-08 09:30:00,69.1,23.8,30.12,North,6,3.0,4.0,18,0.00,,,0.00,Wunderground v.1.15,2013-10-08 16:30:00,
2013-10-08 09:35:00,69.3,23.9,30.12,NNW,328,2.0,4.0,18,0.00,,,0.00,Wunderground v.1.15,2013-10-08 16:35:00,
2013-10-08 09:45:00,69.4,24.0,30.11,North,2,3.0,3.0,18,0.00,,,0.00,Wunderground v.1.15,2013-10-08 16:45:00,
2013-10-08 09:50:00,69.5,24.1,30.11,NNW,327,3.0,10.0,18,0.00,,,0.00,Wunderground v.1.15,2013-10-08 16:50:00,
2013-10-08 10:00:00,69.5,21.3,30.11,WNW,296,3.0,3.0,16,0.00,,,0.00,Wunderground v.1.15,2013-10-08 17:00:00,
2013-10-08 10:10:00,69.3,19.6,30.11,NW,325,5.0,5.0,15,0.00,,,0.00,Wunderground v.1.15,2013-10-08 17:10:00,
2013-10-08 10:15:00,69.2,19.5,30.11,NW,322,7.0,9.0,15,0.00,,,0.00,Wunderground v.1.15,2013-10-08 17:15:00,
2013-10-08 10:20:00,69.2,19.5,30.11,NNW,335,8.0,11.0,15,0.00,,,0.00,Wunderground v.1.15,2013-10-08 17:20:00,
2013-10-08 10:30:00,69.9,20.1,30.11,NNW,339,7.0,7.0,15,0.00,,,0.00,Wunderground v.1.15,2013-10-08 17:30:00,
2013-10-08 10:35:00,70.3,20.4,30.10,NNW,336,7.0,10.0,15,0.00,,,0.00,Wunderground v.1.15,2013-10-08 17:35:00,
2013-10-08 10:45:00,70.8,23.8,30.10,NNW,342,9.0,16.0,17,0.00,,,0.00,Wunderground v.1.15,2013-10-08 17:45:00,
2013-10-08 10:50:00,70.7,25.1,30.10,NNW,338,10.0,16.0,18,0.00,,,0.00,Wunderground v.1.15,2013-10-08 17:50:00,
2013-10-08 10:55:00,70.8,25.2,30.10,North,352,12.0,16.0,18,0.00,,,0.00,Wunderground v.1.15,2013-10-08 17:55:00,
2013-10-08 11:00:00,70.8,23.8,30.10,NNW,343,12.0,17.0,17,0.00,,,0.00,Wunderground v.1.15,2013-10-08 18:00:00,
2013-10-08 11:10:00,70.9,20.9,30.10,WNW,302,10.0,10.0,15,0.00,,,0.00,Wunderground v.1.15,2013-10-08 18:10:00,
2013-10-08 11:15:00,71.3,21.2,30.10,WNW,303,8.0,16.0,15,0.00,,,0.00,Wunderground v.1.15,2013-10-08 18:15:00,
2013-10-08 11:20:00,71.4,21.3,30.10,NW,314,8.0,26.0,15,0.00,,,0.00,Wunderground v.1.15,2013-10-08 18:20:00,
2013-10-08 11:25:00,71.3,19.6,30.09,NNW,331,8.0,26.0,14,0.00,,,0.00,Wunderground v.1.15,2013-10-08 18:25:00,
2013-10-08 11:35:00,71.7,19.9,30.09,NNW,335,8.0,26.0,14,0.00,,,0.00,Wunderground v.1.15,2013-10-08 18:35:00,
2013-10-08 11:45:00,71.7,18.2,30.09,WNW,285,8.0,26.0,13,0.00,,,0.00,Wunderground v.1.15,2013-10-08 18:45:00,
2013-10-08 11:50:00,71.2,17.8,30.09,NW,314,9.0,25.0,13,0.00,,,0.00,Wunderground v.1.15,2013-10-08 18:50:00,
2013-10-08 12:00:00,71.5,18.0,30.09,NW,310,10.0,25.0,13,0.00,,,0.00,Wunderground v.1.15,2013-10-08 19:00:00,
2013-10-08 12:10:00,71.2,21.1,30.09,NW,318,10.0,10.0,15,0.00,,,0.00,Wunderground v.1.15,2013-10-08 19:10:00,
2013-10-08 12:25:00,71.0,21.0,30.09,WNW,287,9.0,20.0,15,0.00,,,0.00,Wunderground v.1.15,2013-10-08 19:25:00,
2013-10-08 12:35:00,71.5,27.0,30.08,WNW,302,9.0,11.0,19,0.00,,,0.00,Wunderground v.1.15,2013-10-08 19:35:00,
2013-10-08 12:45:00,71.7,25.9,30.08,WNW,288,9.0,20.0,18,0.00,,,0.00,Wunderground v.1.15,2013-10-08 19:45:00,
2013-10-08 12:50:00,72.3,25.0,30.08,NNW,331,9.0,24.0,17,0.00,,,0.00,Wunderground v.1.15,2013-10-08 19:50:00,
2013-10-08 13:00:00,71.8,23.2,30.08,WNW,302,7.0,24.0,16,0.00,,,0.00,Wunderground v.1.15,2013-10-08 20:00:00,
2013-10-08 13:05:00,71.8,23.2,30.07,West,269,8.0,24.0,16,0.00,,,0.00,Wunderground v.1.15,2013-10-08 20:05:00,
2013-10-08 13:15:00,72.0,23.3,30.07,NW,319,7.0,24.0,16,0.00,,,0.00,Wunderground v.1.15,2013-10-08 20:15:00,
2013-10-08 13:25:00,71.8,21.6,30.06,NW,304,8.0,18.0,15,0.00,,,0.00,Wunderground v.1.15,2013-10-08 20:25:00,
2013-10-08 13:30:00,72.0,23.3,30.06,NNW,336,8.0,18.0,16,0.00,,,0.00,Wunderground v.1.15,2013-10-08 20:30:00,
2013-10-08 13:35:00,72.2,23.5,30.05,WNW,283,9.0,18.0,16,0.00,,,0.00,Wunderground v.1.15,2013-10-08 20:35:00,
2013-10-08 13:40:00,72.2,23.5,30.05,WNW,291,9.0,18.0,16,0.00,,,0.00,Wunderground v.1.15,2013-10-08 20:40:00,
2013-10-08 13:45:00,71.9,23.2,30.05,WNW,290,10.0,18.0,16,0.00,,,0.00,Wunderground v.1.15,2013-10-08 20:45:00,
2013-10-08 13:50:00,72.5,22.2,30.04,NW,311,10.0,10.0,15,0.00,,,0.00,Wunderground v.1.15,2013-10-08 20:50:00,
2013-10-08 13:55:00,72.9,22.5,30.04,NW,314,8.0,18.0,15,0.00,,,0.00,Wunderground v.1.15,2013-10-08 20:55:00,
2013-10-08 14:05:00,72.6,23.8,30.04,NNW,344,9.0,18.0,16,0.00,,,0.00,Wunderground v.1.15,2013-10-08 21:05:00,
2013-10-08 14:15:00,73.0,22.6,30.04,NW,306,8.0,18.0,15,0.00,,,0.00,Wunderground v.1.15,2013-10-08 21:15:00,
2013-10-08 14:20:00,72.7,23.9,30.04,WNW,302,7.0,21.0,16,0.00,,,0.00,Wunderground v.1.15,2013-10-08 21:20:00,
2013-10-08 14:30:00,72.8,24.0,30.03,NW,305,9.0,21.0,16,0.00,,,0.00,Wunderground v.1.15,2013-10-08 21:30:00,
2013-10-08 14:35:00,73.0,24.1,30.03,NW,325,8.0,21.0,16,0.00,,,0.00,Wunderground v.1.15,2013-10-08 21:35:00,
2013-10-08 14:40:00,72.6,23.8,30.03,NW,306,9.0,9.0,16,0.00,,,0.00,Wunderground v.1.15,2013-10-08 21:40:00,
2013-10-08 14:50:00,72.0,23.3,30.02,NNW,336,13.0,13.0,16,0.00,,,0.00,Wunderground v.1.15,2013-10-08 21:50:00,
2013-10-08 14:55:00,72.6,22.3,30.02,NW,305,13.0,19.0,15,0.00,,,0.00,Wunderground v.1.15,2013-10-08 21:55:00,
2013-10-08 15:00:00,72.2,23.5,30.02,NW,304,12.0,22.0,16,0.00,,,0.00,Wunderground v.1.15,2013-10-08 22:00:00,
2013-10-08 15:10:00,72.1,23.4,30.02,WNW,302,13.0,13.0,16,0.00,,,0.00,Wunderground v.1.15,2013-10-08 22:10:00,
2013-10-08 15:15:00,72.1,24.8,30.02,NW,305,13.0,14.0,17,0.00,,,0.00,Wunderground v.1.15,2013-10-08 22:15:00,
2013-10-08 15:20:00,72.0,23.3,30.01,NW,311,13.0,33.0,16,0.00,,,0.00,Wunderground v.1.15,2013-10-08 22:20:00,
2013-10-08 15:30:00,71.7,23.1,30.02,NW,316,14.0,14.0,16,0.00,,,0.00,Wunderground v.1.15,2013-10-08 22:30:00,
2013-10-08 15:45:00,72.2,18.6,30.01,WNW,296,13.0,33.0,13,0.00,,,0.00,Wunderground v.1.15,2013-10-08 22:45:00,
2013-10-08 15:50:00,72.6,18.9,30.01,NW,319,13.0,26.0,13,0.00,,,0.00,Wunderground v.1.15,2013-10-08 22:50:00,
2013-10-08 16:05:00,72.2,21.9,30.01,NW,321,12.0,26.0,15,0.00,,,0.00,Wunderground v.1.15,2013-10-08 23:05:00,
2013-10-08 16:10:00,72.1,23.4,30.01,NNW,344,11.0,11.0,16,0.00,,,0.00,Wunderground v.1.15,2013-10-08 23:10:00,
2013-10-08 16:20:00,71.2,22.7,30.01,NW,321,12.0,12.0,16,0.00,,,0.00,Wunderground v.1.15,2013-10-08 23:20:00,
2013-10-08 16:30:00,71.3,24.2,30.01,NW,319,10.0,25.0,17,0.00,,,0.00,Wunderground v.1.15,2013-10-08 23:30:00,
2013-10-08 16:35:00,71.4,22.8,30.00,North,353,9.0,25.0,16,0.00,,,0.00,Wunderground v.1.15,2013-10-08 23:35:00,
2013-10-08 16:45:00,71.3,24.2,29.99,NNW,333,11.0,25.0,17,0.00,,,0.00,Wunderground v.1.15,2013-10-08 23:45:00,
2013-10-08 16:55:00,70.8,23.8,29.99,NNW,328,14.0,22.0,17,0.00,,,0.00,Wunderground v.1.15,2013-10-08 23:55:00,
2013-10-08 17:00:00,70.9,22.4,29.99,West,269,13.0,13.0,16,0.00,,,0.00,Wunderground v.1.15,2013-10-09 00:00:00,
2013-10-08 17:10:00,70.4,24.8,29.99,WNW,300,12.0,21.0,18,0.00,,,0.00,Wunderground v.1.15,2013-10-09 00:10:00,
2013-10-08 17:20:00,69.8,28.1,29.99,NW,312,13.0,13.0,21,0.00,,,0.00,Wunderground v.1.15,2013-10-09 00:20:00,
2013-10-08 17:25:00,69.6,27.9,29.98,NNW,331,12.0,25.0,21,0.00,,,0.00,Wunderground v.1.15,2013-10-09 00:25:00,
2013-10-08 17:40:00,68.9,27.3,29.97,WNW,301,13.0,25.0,21,0.00,,,0.00,Wunderground v.1.15,2013-10-09 00:40:00,
2013-10-08 17:45:00,68.7,29.4,29.98,NW,321,15.0,25.0,23,0.00,,,0.00,Wunderground v.1.15,2013-10-09 00:45:00,
2013-10-08 17:50:00,68.3,30.1,29.98,NW,312,14.0,24.0,24,0.00,,,0.00,Wunderground v.1.15,2013-10-09 00:50:00,
2013-10-08 17:55:00,67.9,30.8,29.98,NW,308,13.0,24.0,25,0.00,,,0.00,Wunderground v.1.15,2013-10-09 00:55:00,
2013-10-08 18:00:00,67.5,32.3,29.97,NW,311,13.0,24.0,27,0.00,,,0.00,Wunderground v.1.15,2013-10-09 01:00:00,
2013-10-08 18:10:00,67.0,29.0,29.97,NNW,329,13.0,13.0,24,0.00,,,0.00,Wunderground v.1.15,2013-10-09 01:10:00,
2013-10-08 18:20:00,66.5,29.6,29.97,NW,313,13.0,13.0,25,0.00,,,0.00,Wunderground v.1.15,2013-10-09 01:20:00,
2013-10-08 18:30:00,65.9,31.8,29.97,NW,320,11.0,11.0,28,0.00,,,0.00,Wunderground v.1.15,2013-10-09 01:30:00,
2013-10-08 18:35:00,65.6,30.7,29.97,NNW,337,11.0,13.0,27,0.00,,,0.00,Wunderground v.1.15,2013-10-09 01:35:00,
2013-10-08 18:45:00,65.2,29.4,29.96,NW,310,13.0,18.0,26,0.00,,,0.00,Wunderground v.1.15,2013-10-09 01:45:00,
2013-10-08 18:55:00,65.1,29.3,29.96,NW,326,14.0,18.0,26,0.00,,,0.00,Wunderground v.1.15,2013-10-09 01:55:00,
2013-10-08 19:00:00,65.0,30.2,29.96,NNW,335,15.0,22.0,27,0.00,,,0.00,Wunderground v.1.15,2013-10-09 02:00:00,
2013-10-08 19:05:00,64.9,30.1,29.96,NW,324,15.0,22.0,27,0.00,,,0.00,Wunderground v.1.15,2013-10-09 02:05:00,
2013-10-08 19:15:00,64.6,30.7,29.97,NW,308,13.0,22.0,28,0.00,,,0.00,Wunderground v.1.15,2013-10-09 02:15:00,
2013-10-08 19:20:00,64.4,31.4,29.97,NW,323,12.0,12.0,29,0.00,,,0.00,Wunderground v.1.15,2013-10-09 02:20:00,
2013-10-08 19:30:00,64.5,31.5,29.97,NW,307,13.0,27.0,29,0.00,,,0.00,Wunderground v.1.15,2013-10-09 02:30:00,
2013-10-08 19:35:00,64.3,30.5,29.97,WNW,285,12.0,27.0,28,0.00,,,0.00,Wunderground v.1.15,2013-10-09 02:35:00,
2013-10-08 19:40:00,64.3,28.7,29.97,NW,308,12.0,27.0,26,0.00,,,0.00,Wunderground v.1.15,2013-10-09 02:40:00,
2013-10-08 19:45:00,64.4,29.7,29.97,NW,308,12.0,27.0,27,0.00,,,0.00,Wunderground v.1.15,2013-10-09 02:45:00,
2013-10-08 19:50:00,64.0,30.2,29.97,NW,313,12.0,12.0,28,0.00,,,0.00,Wunderground v.1.15,2013-10-09 02:50:00,
2013-10-08 20:00:00,63.6,29.9,29.97,NW,304,12.0,12.0,28,0.00,,,0.00,Wunderground v.1.15,2013-10-09 03:00:00,
2013-10-08 20:05:00,63.6,29.9,29.97,NW,315,12.0,22.0,28,0.00,,,0.00,Wunderground v.1.15,2013-10-09 03:05:00,
2013-10-08 20:15:00,63.4,28.8,29.97,NW,315,11.0,16.0,27,0.00,,,0.00,Wunderground v.1.15,2013-10-09 03:15:00,
2013-10-08 20:20:00,63.6,27.1,29.97,NW,319,12.0,21.0,25,0.00,,,0.00,Wunderground v.1.15,2013-10-09 03:20:00,
2013-10-08 20:30:00,63.3,29.6,29.97,NW,306,11.0,11.0,28,0.00,,,0.00,Wunderground v.1.15,2013-10-09 03:30:00,
2013-10-08 20:35:00,63.1,28.5,29.97,NW,310,10.0,21.0,27,0.00,,,0.00,Wunderground v.1.15,2013-10-09 03:35:00,
2013-10-08 20:45:00,63.4,25.9,29.97,NW,321,10.0,21.0,24,0.00,,,0.00,Wunderground v.1.15,2013-10-09 03:45:00,
2013-10-08 20:50:00,63.6,25.1,29.97,NW,316,11.0,23.0,23,0.00,,,0.00,Wunderground v.1.15,2013-10-09 03:50:00,
2013-10-08 21:00:00,62.8,27.4,29.97,NNW,332,10.0,23.0,26,0.00,,,0.00,Wunderground v.1.15,2013-10-09 04:00:00,
2013-10-08 21:05:00,62.8,26.4,29.97,NNW,334,11.0,23.0,25,0.00,,,0.00,Wunderground v.1.15,2013-10-09 04:05:00,
2013-10-08 21:10:00,62.5,28.0,29.97,NNW,329,9.0,23.0,27,0.00,,,0.00,Wunderground v.1.15,2013-10-09 04:10:00,
2013-10-08 21:15:00,62.0,29.3,29.97,NNW,328,7.0,23.0,29,0.00,,,0.00,Wunderground v.1.15,2013-10-09 04:15:00,
2013-10-08 21:20:00,61.8,29.2,29.96,NW,325,8.0,25.0,29,0.00,,,0.00,Wunderground v.1.15,2013-10-09 04:20:00,
2013-10-08 21:25:00,61.7,29.1,29.96,NW,321,7.0,25.0,29,0.00,,,0.00,Wunderground v.1.15,2013-10-09 04:25:00,
2013-10-08 21:30:00,61.8,28.3,29.96,NW,310,7.0,25.0,28,0.00,,,0.00,Wunderground v.1.15,2013-10-09 04:30:00,
2013-10-08 21:35:00,61.5,29.7,29.96,NNW,327,9.0,25.0,30,0.00,,,0.00,Wunderground v.1.15,2013-10-09 04:35:00,
2013-10-08 21:40:00,61.5,28.9,29.96,NW,319,10.0,10.0,29,0.00,,,0.00,Wunderground v.1.15,2013-10-09 04:40:00,
2013-10-08 21:45:00,61.4,28.8,29.96,NW,323,9.0,25.0,29,0.00,,,0.00,Wunderground v.1.15,2013-10-09 04:45:00,
2013-10-08 21:50:00,61.6,27.3,29.97,North,350,9.0,22.0,27,0.00,,,0.00,Wunderground v.1.15,2013-10-09 04:50:00,
2013-10-08 21:55:00,61.5,28.1,29.97,NNW,343,8.0,22.0,28,0.00,,,0.00,Wunderground v.1.15,2013-10-09 04:55:00,
2013-10-08 22:00:00,61.4,28.8,29.97,North,352,7.0,7.0,29,0.00,,,0.00,Wunderground v.1.15,2013-10-09 05:00:00,
2013-10-08 22:05:00,61.2,27.8,29.96,NW,323,8.0,14.0,28,0.00,,,0.00,Wunderground v.1.15,2013-10-09 05:05:00,
2013-10-08 22:15:00,61.0,28.5,29.96,NW,313,11.0,13.0,29,0.00,,,0.00,Wunderground v.1.15,2013-10-09 05:15:00,
2013-10-08 22:20:00,60.8,28.3,29.96,NNW,333,11.0,21.0,29,0.00,,,0.00,Wunderground v.1.15,2013-10-09 05:20:00,
2013-10-08 22:30:00,60.5,27.2,29.96,North,9,8.0,8.0,28,0.00,,,0.00,Wunderground v.1.15,2013-10-09 05:30:00,
2013-10-08 22:35:00,60.6,26.4,29.95,NE,40,7.0,21.0,27,0.00,,,0.00,Wunderground v.1.15,2013-10-09 05:35:00,
2013-10-08 22:40:00,60.4,26.2,29.96,NNE,12,5.0,5.0,27,0.00,,,0.00,Wunderground v.1.15,2013-10-09 05:40:00,
2013-10-08 22:50:00,60.5,24.5,29.95,NNW,341,6.0,18.0,25,0.00,,,0.00,Wunderground v.1.15,2013-10-09 05:50:00,
2013-10-08 23:00:00,60.6,23.6,29.95,NNE,13,7.0,18.0,24,0.00,,,0.00,Wunderground v.1.15,2013-10-09 06:00:00,
2013-10-08 23:10:00,60.4,23.4,29.95,NW,323,6.0,18.0,24,0.00,,,0.00,Wunderground v.1.15,2013-10-09 06:10:00,
2013-10-08 23:15:00,60.3,23.3,29.95,NW,321,9.0,18.0,24,0.00,,,0.00,Wunderground v.1.15,2013-10-09 06:15:00,
2013-10-08 23:20:00,60.2,22.2,29.95,NW,312,8.0,8.0,23,0.00,,,0.00,Wunderground v.1.15,2013-10-09 06:20:00,
2013-10-08 23:30:00,60.0,22.0,29.95,NW,309,5.0,5.0,23,0.00,,,0.00,Wunderground v.1.15,2013-10-09 06:30:00,
2013-10-08 23:35:00,59.7,20.7,29.95,NW,309,1.0,20.0,22,0.00,,,0.00,Wunderground v.1.15,2013-10-09 06:35:00,
2013-10-08 23:45:00,59.4,20.5,29.95,NW,306,0.0,20.0,22,0.00,,,0.00,Wunderground v.1.15,2013-10-09 06:45:00,
2013-10-08 23:50:00,59.0,20.2,29.95,NW,306,0.0,17.0,22,0.00,,,0.00,Wunderground v.1.15,2013-10-09 06:50:00,